Location: Champs
(48.8539°N, 2.6040°E)
Time: 10:46:06
(UTC+00:00)

USA 308 - Pass Details

Date: 02 June 2022
Orbit: 549 x 558 km, 54.0° (Epoch: 14 June)

Event Time Altitude Azimuth Distance (km) Brightness Sun altitude
Rises 22:24:58 0° 233° (SW) 2,718 6.2 -16.5°
Reaches altitude 10° 22:27:11 10° 231° (SW) 1,829 5.3 -16.6°
Maximum altitude 22:31:19 71° 148° (SSE) 590 2.7 -16.9°
Drops below altitude 10° 22:35:33 10° 65° (ENE) 1,867 5.6 -17.1°
Sets 22:37:45 0° 63° (ENE) 2,744 6.5 -17.2°
